Tiempo cada hora Amoeiro

Hoy, 19 Enero, Martes

Tiempo Temperatura Precipitaciones Viento Presión Humedad
00:00 +5°C° 0 mm 1 mps 737 mmHg 90%
01:00 +5°C° 0 mm 1 mps 737 mmHg 90%
02:00 +4°C° 0 mm 1 mps 736 mmHg 90%
03:00 +4°C° 0 mm 1 mps 736 mmHg 90%
04:00 +4°C° 0 mm 1 mps 736 mmHg 90%
05:00 +4°C° 0 mm 1 mps 736 mmHg 90%
06:00 +5°C° 0 mm 1 mps 735 mmHg 88%
07:00 +5°C° 0 mm 1 mps 735 mmHg 86%
08:00 +6°C° 0 mm 1 mps 735 mmHg 83%
09:00 +6°C° 0 mm 2 mps 735 mmHg 77%
10:00 +8°C° 0 mm 2 mps 734 mmHg 70%
11:00 +10°C° 0 mm 3 mps 734 mmHg 63%
12:00 +10°C° 0 mm 3 mps 733 mmHg 62%
13:00 +10°C° 0 mm 3 mps 732 mmHg 61%
14:00 +10°C° 0 mm 3 mps 731 mmHg 60%
15:00 +9°C° 0 mm 3 mps 731 mmHg 64%
16:00 +8°C° 0 mm 3 mps 730 mmHg 68%
17:00 +7°C° 0 mm 3 mps 730 mmHg 73%
18:00 +7°C° 0 mm 3 mps 729 mmHg 74%
19:00 +6°C° 0 mm 4 mps 729 mmHg 75%
20:00 +6°C° 0 mm 4 mps 728 mmHg 76%
21:00 +6°C° 0 mm 4 mps 727 mmHg 77%
22:00 +6°C° 0 mm 4 mps 726 mmHg 78%
23:00 +6°C° 0 mm 4 mps 726 mmHg 80%

Mañana, 20 Enero, Miércoles

Tiempo Temperatura Precipitaciones Viento Presión Humedad
00:00 +6°C° 0.6 mm 5 mps 725 mmHg 83%
01:00 +6°C° 0.6 mm 5 mps 724 mmHg 86%
02:00 +6°C° 0.6 mm 5 mps 723 mmHg 89%
03:00 +7°C° 0.9 mm 4 mps 723 mmHg 91%
04:00 +7°C° 0.9 mm 4 mps 722 mmHg 93%
05:00 +8°C° 0.9 mm 3 mps 721 mmHg 95%
06:00 +7°C° 1.1 mm 4 mps 721 mmHg 95%
07:00 +7°C° 1.1 mm 4 mps 721 mmHg 95%
08:00 +8°C° 1.1 mm 4 mps 721 mmHg 95%
09:00 +8°C° 3 mm 4 mps 721 mmHg 95%
10:00 +8°C° 3 mm 4 mps 721 mmHg 96%
11:00 +10°C° 3 mm 4 mps 721 mmHg 96%
12:00 +9°C° 1 mm 5 mps 720 mmHg 96%
13:00 +9°C° 1 mm 5 mps 720 mmHg 95%
14:00 +9°C° 1 mm 5 mps 720 mmHg 95%
15:00 +9°C° 1.2 mm 5 mps 720 mmHg 95%
16:00 +9°C° 1.2 mm 5 mps 721 mmHg 96%
17:00 +10°C° 1.2 mm 4 mps 721 mmHg 96%
18:00 +10°C° 0.3 mm 4 mps 722 mmHg 96%
19:00 +10°C° 0.3 mm 4 mps 722 mmHg 96%
20:00 +10°C° 0.3 mm 4 mps 723 mmHg 96%
21:00 +10°C° 0.2 mm 4 mps 723 mmHg 96%
22:00 +10°C° 0.2 mm 4 mps 724 mmHg 96%
23:00 +10°C° 0.2 mm 3 mps 725 mmHg 96%

Pasado mañana, 21 Enero, Jueves

Tiempo Temperatura Precipitaciones Viento Presión Humedad
00:00 +10°C° 0.2 mm 3 mps 725 mmHg 96%
01:00 +9°C° 0.2 mm 3 mps 725 mmHg 96%
02:00 +9°C° 0.2 mm 3 mps 725 mmHg 96%
03:00 +9°C° 0.1 mm 3 mps 725 mmHg 96%
04:00 +9°C° 0.1 mm 3 mps 725 mmHg 96%
05:00 +9°C° 0.1 mm 3 mps 725 mmHg 95%
06:00 +8°C° 2 mm 4 mps 724 mmHg 96%
07:00 +9°C° 2 mm 5 mps 723 mmHg 96%
08:00 +9°C° 2 mm 5 mps 723 mmHg 96%
09:00 +9°C° 3.8 mm 6 mps 723 mmHg 95%
10:00 +10°C° 3.8 mm 7 mps 723 mmHg 93%
11:00 +10°C° 3.8 mm 7 mps 724 mmHg 92%
12:00 +10°C° 0.2 mm 8 mps 724 mmHg 91%
13:00 +9°C° 0.2 mm 8 mps 724 mmHg 90%
14:00 +9°C° 0.2 mm 8 mps 723 mmHg 90%
15:00 +8°C° 0.3 mm 7 mps 724 mmHg 90%
16:00 +8°C° 0.3 mm 7 mps 725 mmHg 91%
17:00 +8°C° 0.3 mm 6 mps 725 mmHg 92%
18:00 +7°C° 0.3 mm 5 mps 726 mmHg 92%
19:00 +7°C° 0.3 mm 5 mps 727 mmHg 93%
20:00 +7°C° 0.3 mm 4 mps 727 mmHg 93%
21:00 +8°C° 0.9 mm 3 mps 727 mmHg 94%
22:00 +8°C° 0.9 mm 3 mps 726 mmHg 94%
23:00 +8°C° 0.9 mm 3 mps 726 mmHg 95%

22 Enero, Viernes

Tiempo Temperatura Precipitaciones Viento Presión Humedad
00:00 +8°C° 1.5 mm 3 mps 725 mmHg 95%
01:00 +8°C° 1.5 mm 3 mps 724 mmHg 96%
02:00 +7°C° 1.5 mm 4 mps 724 mmHg 96%
03:00 +7°C° 1.1 mm 4 mps 724 mmHg 95%
04:00 +6°C° 1.1 mm 5 mps 724 mmHg 94%
05:00 +5°C° 1.1 mm 6 mps 724 mmHg 93%
06:00 +6°C° 0.6 mm 5 mps 725 mmHg 93%
07:00 +6°C° 0.6 mm 4 mps 726 mmHg 94%
08:00 +5°C° 0.6 mm 3 mps 727 mmHg 95%
09:00 +7°C° 0.1 mm 3 mps 728 mmHg 91%
10:00 +8°C° 0.1 mm 3 mps 728 mmHg 88%
11:00 +8°C° 0.1 mm 3 mps 729 mmHg 85%
12:00 +7°C° 0.2 mm 4 mps 729 mmHg 86%
13:00 +7°C° 0.2 mm 4 mps 729 mmHg 86%
14:00 +8°C° 0.2 mm 5 mps 729 mmHg 86%
15:00 +7°C° 0.2 mm 4 mps 729 mmHg 88%
16:00 +6°C° 0.2 mm 4 mps 730 mmHg 90%
17:00 +6°C° 0.2 mm 4 mps 730 mmHg 93%
18:00 +6°C° 0.2 mm 4 mps 730 mmHg 93%
19:00 +6°C° 0.2 mm 5 mps 730 mmHg 93%
20:00 +6°C° 0.2 mm 5 mps 730 mmHg 92%
21:00 +6°C° 0.1 mm 5 mps 730 mmHg 93%
22:00 +7°C° 0.1 mm 5 mps 730 mmHg 93%
23:00 +7°C° 0.1 mm 5 mps 730 mmHg 93%

23 Enero, Sábado

Tiempo Temperatura Precipitaciones Viento Presión Humedad
00:00 +7°C° 0.2 mm 5 mps 730 mmHg 93%
01:00 +7°C° 0.2 mm 5 mps 730 mmHg 93%
02:00 +7°C° 0.2 mm 5 mps 730 mmHg 93%
03:00 +7°C° 0.4 mm 5 mps 729 mmHg 94%
04:00 +6°C° 0.4 mm 4 mps 729 mmHg 95%
05:00 +6°C° 0.4 mm 4 mps 728 mmHg 96%
06:00 +7°C° 0.7 mm 4 mps 728 mmHg 96%
07:00 +8°C° 0.7 mm 5 mps 728 mmHg 95%
08:00 +8°C° 0.7 mm 5 mps 727 mmHg 95%
09:00 +9°C° 1.9 mm 5 mps 727 mmHg 96%
10:00 +10°C° 1.9 mm 6 mps 727 mmHg 96%
11:00 +10°C° 1.9 mm 6 mps 726 mmHg 97%
12:00 +10°C° 1.1 mm 6 mps 726 mmHg 95%
13:00 +11°C° 1.1 mm 7 mps 726 mmHg 94%
14:00 +11°C° 1.1 mm 7 mps 726 mmHg 92%
15:00 +10°C° 0.1 mm 7 mps 726 mmHg 93%
16:00 +9°C° 0.1 mm 6 mps 726 mmHg 93%
17:00 +8°C° 0.1 mm 5 mps 727 mmHg 93%
18:00 +8°C° 0.1 mm 5 mps 727 mmHg 94%
19:00 +8°C° 0.1 mm 5 mps 728 mmHg 94%
20:00 +8°C° 0.1 mm 5 mps 728 mmHg 94%
21:00 +8°C° 0.1 mm 4 mps 728 mmHg 94%
22:00 +8°C° 0.1 mm 4 mps 729 mmHg 94%
23:00 +8°C° 0.1 mm 4 mps 729 mmHg 94%

24 Enero, Domingo

Tiempo Temperatura Precipitaciones Viento Presión Humedad
00:00 +7°C° 0.1 mm 4 mps 729 mmHg 95%
01:00 +8°C° 0.1 mm 3 mps 729 mmHg 96%
02:00 +8°C° 0.1 mm 3 mps 730 mmHg 97%
03:00 +8°C° 0.1 mm 2 mps 730 mmHg 97%
04:00 +8°C° 0.1 mm 2 mps 730 mmHg 97%
05:00 +8°C° 0.1 mm 2 mps 730 mmHg 98%
06:00 +9°C° 0.1 mm 1 mps 730 mmHg 97%
07:00 +9°C° 0.1 mm 1 mps 731 mmHg 97%
08:00 +9°C° 0.1 mm 1 mps 731 mmHg 97%
09:00 +10°C° 0.1 mm 1 mps 732 mmHg 93%
10:00 +10°C° 0.1 mm 2 mps 732 mmHg 89%
11:00 +12°C° 0.1 mm 2 mps 732 mmHg 85%
12:00 +12°C° 0.1 mm 2 mps 732 mmHg 85%
13:00 +12°C° 0.1 mm 2 mps 732 mmHg 85%
14:00 +12°C° 0.1 mm 2 mps 732 mmHg 85%
15:00 +10°C° 0.1 mm 2 mps 732 mmHg 88%
16:00 +11°C° 0.1 mm 1 mps 732 mmHg 91%
17:00 +10°C° 0.1 mm 1 mps 732 mmHg 95%
18:00 +10°C° 0 mm 1 mps 732 mmHg 95%
19:00 +10°C° 0 mm 1 mps 733 mmHg 95%
20:00 +10°C° 0 mm 1 mps 733 mmHg 96%
21:00 +10°C° 0.2 mm 1 mps 733 mmHg 96%
22:00 +10°C° 0.2 mm 1 mps 733 mmHg 96%
23:00 +10°C° 0.2 mm 1 mps 733 mmHg 97%
Mostrar más

Necesitamos Su Consentimiento

Meteoprog y nuestros Proveedores de Servicios pueden almacenar y acceder a sus datos personales como cookies, identificadores de dispositivo u otras tecnologías similares de su dispositivo y procesar dichos datos para personalizar contenido y anuncios, además de ofrecer funciones de redes sociales y analizar el tráfico.

  • Almacenar y/o acceder a información en su dispositivo

    Se puede almacenar o acceder a cookies, identificadores de dispositivo u otra información de su dispositivo para los fines anteriormente indicados.

  • Anuncios y contenido personalizados, medición de anuncios y contenido, percepciones del público, y desarrollo de productos

    Los anuncios y el contenido pueden personalizarse en base a su perfil. Se pueden añadir más datos para personalizar mejor los anuncios y contenidos. Se puede medir el rendimiento de los anuncios y contenidos. Se puede obtener la percepción sobre el público que ha visto los anuncios y contenidos. Dichos datos pueden usarse para desarrollar o mejorar la experiencia del usuario, sistemas y software.

Al hacer clic en ‘Estoy De Acuerdo’ usted permitirá el uso de las cookies, identificadores de dispositivo, balizas web u otras tecnologías similares indicadas. Su configuración puede cambiarse desde el navegador de su dispositivo.

Para ciertos fines, los intereses legítimos pueden ser considerados por encima del consentimiento. Puede leer más sobre ello en nuestra Política de Privacidad y Cookies.